Retour au catalogue

STARLINK-36283

ActifCommunicationsVLEO
NORAD 67197·PAYLOAD·🇺🇸 United States

Lancé Dec 17, 2025 depuis Vandenberg Space Force Base

Loading…

Prochains Passages (prochaines 24 heures)

TLE

FraisSource: CelesTrak SupGP

Époque: Sep 14, 2026, 21:28 UTC

1 67197C 25304F   26257.89493056  .00041697  00000+0  34942-2 0  2577
2 67197  70.0012  57.2776 0002805 275.1837 271.8933 14.98311811    15

Suivez STARLINK-36283 en temps réel avec AllMySat

Download on the App Store